THORAD AGENA D DEB, 17720

Orbit data source: Space-Track

THORAD AGENA D DEB, 17720 is space debris in SSO originally from a launch on Wed, 08 Apr 1970 UTC launched from the Air Force Western Test Range (AFWTR). Debris objects in space refer to the collection of defunct objects orbiting the Earth. Examples of debris include non-operational satellites, rocket bodies, and fragments generated from explosions, collisions, or faulty payload assembly.

Loading next visibility...
Identifier
17720, 1970-025PJ
Orbit
SSO
Country
Flag of USUS
Related business
Manufacturer
Unknown
Mission
Spacecraft
Bus & Motor
Unknown
Mass
Unknown
Launch date (UTC)
1970-04-08 (56 years ago)
Launch vehicle
Unknown
Launch site
Air Force Western Test Range (AFWTR)
Object type
Payload
Rocket body
Debris
Shape & HBR
Unknown shape, 0.1 m
Radar Cross Section
Small (<0.1 m²)

Expand to show TLE details & history
Last TLE update: 18 hours ago

TLE from 18 hours ago
0 THORAD AGENA D DEB
1 17720U 70025PJ  26094.97241027  .00005578  00000-0  24537-2 0  9992
2 17720  99.6155 345.6942 0032441  42.1518 333.6022 14.23638421 95436
Epoch: 2026-04-04T23:20Z
TLE epoch observation values (Epoch: 2026-04-04T23:20:16.247Z)
Latitude
15.34171°
Longitude
159.69213°
Altitude
794.384 km
Speed
7.469 km/s
True Right ascension
22h 52m 10s
True Declination
15° 15' 17"
Sunlit
Object was in daylight at epoch
Visualization orbit readout
Latitude
Unknown
Longitude
Unknown
Altitude
Unknown
Speed
Unknown
Apparent Right ascension
Unknown
Apparent Declination
Unknown
Sunlit
N/A
Visualization observer readout
Local Sidereal Time
23:16:54
Azimuth
Unknown
Elevation
Unknown
Doppler factor
Unknown
Orbital elements
Apogee altitude
833.593 km
Perigee altitude
786.954 km
Semi-major axis
7,188.41 km
Eccentricity
0.00324
Inclination
99.6155°
RAAN
345.6942°
Arg. of periapsis
42.1518°
True anomaly
333.43632°
Mean anomaly
333.6022°
Eccentric anomaly
333.51932°
Mean motion
3.56118 °/min
Orbital period
101.09 mins
BSTAR
0.0024537
Loading maneuver chart data...
Computing Atmospheric mass density...

Documentation

Showing up to 5 results
|